Year,Month,Day,Hour,Minute,Value (Times are PST for temperature in C)
2020,12,05,00,00,2.10
2020,12,05,00,01,2.20
2020,12,05,00,02,2.20
2020,12,05,00,03,2.30
2020,12,05,00,04,2.40
2020,12,05,00,05,2.50
2020,12,05,00,06,2.50
2020,12,05,00,07,2.60
2020,12,05,00,08,2.60
2020,12,05,00,09,2.60
2020,12,05,00,10,2.60
2020,12,05,00,11,2.60
2020,12,05,00,12,2.60
2020,12,05,00,13,2.60
2020,12,05,00,14,2.50
2020,12,05,00,15,2.50
2020,12,05,00,16,2.60
2020,12,05,00,17,2.60
2020,12,05,00,18,2.60
2020,12,05,00,19,2.60
2020,12,05,00,20,2.60
2020,12,05,00,21,2.60
2020,12,05,00,22,2.60
2020,12,05,00,23,2.60
2020,12,05,00,24,2.60
2020,12,05,00,25,2.60
2020,12,05,00,26,2.60
2020,12,05,00,27,2.60
2020,12,05,00,28,2.60
2020,12,05,00,29,2.50
2020,12,05,00,30,2.50
2020,12,05,00,31,2.50
2020,12,05,00,32,2.40
2020,12,05,00,33,2.40
2020,12,05,00,34,2.30
2020,12,05,00,35,2.30
2020,12,05,00,36,2.30
2020,12,05,00,37,2.20
2020,12,05,00,38,2.20
2020,12,05,00,39,2.20
2020,12,05,00,40,2.20
2020,12,05,00,41,2.10
2020,12,05,00,42,2.00
2020,12,05,00,43,2.00
2020,12,05,00,44,1.90
2020,12,05,00,45,1.90
2020,12,05,00,46,1.80
2020,12,05,00,47,1.80
2020,12,05,00,48,1.80
2020,12,05,00,49,1.70
2020,12,05,00,50,1.70
2020,12,05,00,51,1.70
2020,12,05,00,52,1.60
2020,12,05,00,53,1.60
2020,12,05,00,54,1.60
2020,12,05,00,55,1.60
2020,12,05,00,56,1.60
2020,12,05,00,57,1.50
2020,12,05,00,58,1.50
2020,12,05,00,59,1.40
2020,12,05,01,00,1.40
2020,12,05,01,01,1.30
2020,12,05,01,02,1.30
2020,12,05,01,03,1.30
2020,12,05,01,04,1.30
2020,12,05,01,05,1.30
2020,12,05,01,06,1.30
2020,12,05,01,07,1.30
2020,12,05,01,08,1.30
2020,12,05,01,09,1.30
2020,12,05,01,10,1.30
2020,12,05,01,11,1.30
2020,12,05,01,12,1.30
2020,12,05,01,13,1.20
2020,12,05,01,14,1.20
2020,12,05,01,15,1.20
2020,12,05,01,16,1.20
2020,12,05,01,17,1.20
2020,12,05,01,18,1.20
2020,12,05,01,19,1.20
2020,12,05,01,20,1.20
2020,12,05,01,21,1.20
2020,12,05,01,22,1.20
2020,12,05,01,23,1.20
2020,12,05,01,24,1.20
2020,12,05,01,25,1.20
2020,12,05,01,26,1.20
2020,12,05,01,27,1.20
2020,12,05,01,28,1.20
2020,12,05,01,29,1.10
2020,12,05,01,30,1.10
2020,12,05,01,31,1.10
2020,12,05,01,32,1.10
2020,12,05,01,33,1.10
2020,12,05,01,34,1.10
2020,12,05,01,35,1.10
2020,12,05,01,36,1.10
2020,12,05,01,37,1.10
2020,12,05,01,38,1.10
2020,12,05,01,39,1.10
2020,12,05,01,40,1.10
2020,12,05,01,41,1.10
2020,12,05,01,42,1.10
2020,12,05,01,43,1.10
2020,12,05,01,44,1.20
2020,12,05,01,45,1.20
2020,12,05,01,46,1.20
2020,12,05,01,47,1.20
2020,12,05,01,48,1.20
2020,12,05,01,49,1.10
2020,12,05,01,50,1.10
2020,12,05,01,51,1.10
2020,12,05,01,52,1.10
2020,12,05,01,53,1.00
2020,12,05,01,54,1.00
2020,12,05,01,55,1.00
2020,12,05,01,56,0.90
2020,12,05,01,57,0.90
2020,12,05,01,58,0.90
2020,12,05,01,59,0.90
2020,12,05,02,00,1.00
2020,12,05,02,01,1.00
2020,12,05,02,02,1.00
2020,12,05,02,03,1.00
2020,12,05,02,04,1.00
2020,12,05,02,05,1.00
2020,12,05,02,06,1.00
2020,12,05,02,07,1.00
2020,12,05,02,08,0.90
2020,12,05,02,09,0.90
2020,12,05,02,10,0.90
2020,12,05,02,11,0.90
2020,12,05,02,12,0.90
2020,12,05,02,13,0.80
2020,12,05,02,14,0.80
2020,12,05,02,15,0.80
2020,12,05,02,16,0.80
2020,12,05,02,17,0.80
2020,12,05,02,18,0.80
2020,12,05,02,19,0.70
2020,12,05,02,20,0.70
2020,12,05,02,21,0.70
2020,12,05,02,22,0.70
2020,12,05,02,23,0.70
2020,12,05,02,24,0.70
2020,12,05,02,25,0.70
2020,12,05,02,26,0.70
2020,12,05,02,27,0.70
2020,12,05,02,28,0.70
2020,12,05,02,29,0.70
2020,12,05,02,30,0.70
2020,12,05,02,31,0.60
2020,12,05,02,32,0.60
2020,12,05,02,33,0.60
2020,12,05,02,34,0.60
2020,12,05,02,35,0.60
2020,12,05,02,36,0.70
2020,12,05,02,37,0.70
2020,12,05,02,38,0.70
2020,12,05,02,39,0.70
2020,12,05,02,40,0.70
2020,12,05,02,41,0.70
2020,12,05,02,42,0.70
2020,12,05,02,43,0.70
2020,12,05,02,44,0.70
2020,12,05,02,45,0.70
2020,12,05,02,46,0.70
2020,12,05,02,47,0.70
2020,12,05,02,48,0.70
2020,12,05,02,49,0.70
2020,12,05,02,50,0.70
2020,12,05,02,51,0.70
2020,12,05,02,52,0.70
2020,12,05,02,53,0.70
2020,12,05,02,54,0.70
2020,12,05,02,55,0.70
2020,12,05,02,56,0.70
2020,12,05,02,57,0.70
2020,12,05,02,58,0.70
2020,12,05,02,59,0.70
2020,12,05,03,00,0.70
2020,12,05,03,01,0.80
2020,12,05,03,02,0.80
2020,12,05,03,03,0.80
2020,12,05,03,04,0.80
2020,12,05,03,05,0.80
2020,12,05,03,06,0.80
2020,12,05,03,07,0.80
2020,12,05,03,08,0.80
2020,12,05,03,09,0.80
2020,12,05,03,10,0.80
2020,12,05,03,11,0.80
2020,12,05,03,12,0.80
2020,12,05,03,13,0.80
2020,12,05,03,14,0.80
2020,12,05,03,15,0.70
2020,12,05,03,16,0.70
2020,12,05,03,17,0.70
2020,12,05,03,18,0.80
2020,12,05,03,19,0.80
2020,12,05,03,20,0.80
2020,12,05,03,21,0.80
2020,12,05,03,22,0.80
2020,12,05,03,23,0.80
2020,12,05,03,24,0.80
2020,12,05,03,25,0.80
2020,12,05,03,26,0.80
2020,12,05,03,27,0.80
2020,12,05,03,28,0.80
2020,12,05,03,29,0.80
2020,12,05,03,30,0.80
2020,12,05,03,31,0.80
2020,12,05,03,32,0.80
2020,12,05,03,33,0.80
2020,12,05,03,34,0.80
2020,12,05,03,35,0.80
2020,12,05,03,36,0.80
2020,12,05,03,37,0.80
2020,12,05,03,38,0.80
2020,12,05,03,39,0.80
2020,12,05,03,40,0.70
2020,12,05,03,41,0.70
2020,12,05,03,42,0.70
2020,12,05,03,43,0.80
2020,12,05,03,44,0.80
2020,12,05,03,45,0.80
2020,12,05,03,46,0.80
2020,12,05,03,47,0.90
2020,12,05,03,48,1.00
2020,12,05,03,49,1.10
2020,12,05,03,50,1.20
2020,12,05,03,51,1.30
2020,12,05,03,52,1.40
2020,12,05,03,53,1.50
2020,12,05,03,54,1.50
2020,12,05,03,55,1.60
2020,12,05,03,56,1.60
2020,12,05,03,57,1.60
2020,12,05,03,58,1.60
2020,12,05,03,59,1.60
2020,12,05,04,00,1.60
2020,12,05,04,01,1.70
2020,12,05,04,02,1.70
2020,12,05,04,03,1.60
2020,12,05,04,04,1.70
2020,12,05,04,05,1.70
2020,12,05,04,06,1.80
2020,12,05,04,07,1.80
2020,12,05,04,08,1.80
2020,12,05,04,09,1.70
2020,12,05,04,10,1.60
2020,12,05,04,11,1.60
2020,12,05,04,12,1.60
2020,12,05,04,13,1.70
2020,12,05,04,14,1.70
2020,12,05,04,15,1.60
2020,12,05,04,16,1.60
2020,12,05,04,17,1.50
2020,12,05,04,18,1.50
2020,12,05,04,19,1.50
2020,12,05,04,20,1.50
2020,12,05,04,21,1.50
2020,12,05,04,22,1.40
2020,12,05,04,23,1.40
2020,12,05,04,24,1.50
2020,12,05,04,25,1.50
2020,12,05,04,26,1.50
2020,12,05,04,27,1.60
2020,12,05,04,28,1.60
2020,12,05,04,29,1.70
2020,12,05,04,30,1.70
2020,12,05,04,31,1.70
2020,12,05,04,32,1.80
2020,12,05,04,33,1.80
2020,12,05,04,34,1.90
2020,12,05,04,35,1.80
2020,12,05,04,36,1.80
2020,12,05,04,37,1.80
2020,12,05,04,38,1.80
2020,12,05,04,39,1.80
2020,12,05,04,40,1.80
2020,12,05,04,41,1.80
2020,12,05,04,42,1.80
2020,12,05,04,43,1.80
2020,12,05,04,44,1.80
2020,12,05,04,45,1.90
2020,12,05,04,46,1.90
2020,12,05,04,47,1.80
2020,12,05,04,48,1.90
2020,12,05,04,49,1.90
2020,12,05,04,50,1.90
2020,12,05,04,51,2.00
2020,12,05,04,52,2.00
2020,12,05,04,53,2.10
2020,12,05,04,54,2.10
2020,12,05,04,55,2.00
2020,12,05,04,56,2.00
2020,12,05,04,57,1.90
2020,12,05,04,58,1.90
2020,12,05,04,59,1.80
2020,12,05,05,00,1.70
2020,12,05,05,01,1.70
2020,12,05,05,02,1.60
2020,12,05,05,03,1.60
2020,12,05,05,04,1.60
2020,12,05,05,05,1.60
2020,12,05,05,06,1.60
2020,12,05,05,07,1.60
2020,12,05,05,08,1.60
2020,12,05,05,09,1.60
2020,12,05,05,10,1.50
2020,12,05,05,11,1.50
2020,12,05,05,12,1.50
2020,12,05,05,13,1.50
2020,12,05,05,14,1.50
2020,12,05,05,15,1.50
2020,12,05,05,16,1.50
2020,12,05,05,17,1.50
2020,12,05,05,18,1.60
2020,12,05,05,19,1.60
2020,12,05,05,20,1.70
2020,12,05,05,21,1.80
2020,12,05,05,22,1.80
2020,12,05,05,23,1.80
2020,12,05,05,24,1.80
2020,12,05,05,25,1.90
2020,12,05,05,26,1.80
2020,12,05,05,27,1.80
2020,12,05,05,28,1.80
2020,12,05,05,29,1.80
2020,12,05,05,30,1.70
2020,12,05,05,31,1.70
2020,12,05,05,32,1.70
2020,12,05,05,33,1.70
2020,12,05,05,34,1.80
2020,12,05,05,35,1.80
2020,12,05,05,36,1.80
2020,12,05,05,37,1.90
2020,12,05,05,38,1.90
2020,12,05,05,39,1.90
2020,12,05,05,40,1.80
2020,12,05,05,41,1.80
2020,12,05,05,42,1.90
2020,12,05,05,43,1.90
2020,12,05,05,44,1.90
2020,12,05,05,45,2.00
2020,12,05,05,46,2.00
2020,12,05,05,47,2.00
2020,12,05,05,48,2.10
2020,12,05,05,49,2.10
2020,12,05,05,50,2.10
2020,12,05,05,51,2.10
2020,12,05,05,52,2.20
2020,12,05,05,53,2.20
2020,12,05,05,54,2.20
2020,12,05,05,55,2.20
2020,12,05,05,56,2.10
2020,12,05,05,57,2.10
2020,12,05,05,58,2.10
2020,12,05,05,59,2.20
2020,12,05,06,00,2.20
2020,12,05,06,01,2.20
2020,12,05,06,02,2.20
2020,12,05,06,03,2.10
2020,12,05,06,04,2.10
2020,12,05,06,05,2.10
2020,12,05,06,06,2.10
2020,12,05,06,07,2.10
2020,12,05,06,08,2.10
2020,12,05,06,09,2.10
2020,12,05,06,10,2.10
2020,12,05,06,11,2.10
2020,12,05,06,12,2.10
2020,12,05,06,13,2.20
2020,12,05,06,14,2.20
2020,12,05,06,15,2.20
2020,12,05,06,16,2.20
2020,12,05,06,17,2.20
2020,12,05,06,18,2.20
2020,12,05,06,19,2.20
2020,12,05,06,20,2.20
2020,12,05,06,21,2.20
2020,12,05,06,22,2.20
2020,12,05,06,23,2.20
2020,12,05,06,24,2.30
2020,12,05,06,25,2.30
2020,12,05,06,26,2.30
2020,12,05,06,27,2.40
2020,12,05,06,28,2.40
2020,12,05,06,29,2.40
2020,12,05,06,30,2.40
2020,12,05,06,31,2.40
2020,12,05,06,32,2.40
2020,12,05,06,33,2.50
2020,12,05,06,34,2.60
2020,12,05,06,35,2.60
2020,12,05,06,36,2.70
2020,12,05,06,37,2.70
2020,12,05,06,38,2.70
2020,12,05,06,39,2.70
2020,12,05,06,40,2.70
2020,12,05,06,41,2.70
2020,12,05,06,42,2.70
2020,12,05,06,43,2.60
2020,12,05,06,44,2.60
2020,12,05,06,45,2.60
2020,12,05,06,46,2.50
2020,12,05,06,47,2.40
2020,12,05,06,48,2.40
2020,12,05,06,49,2.30
2020,12,05,06,50,2.30
2020,12,05,06,51,2.30
2020,12,05,06,52,2.30
2020,12,05,06,53,2.20
2020,12,05,06,54,2.20
2020,12,05,06,55,2.20
2020,12,05,06,56,2.10
2020,12,05,06,57,2.10
2020,12,05,06,58,2.10
2020,12,05,06,59,2.10
2020,12,05,07,00,2.10
2020,12,05,07,01,2.10
2020,12,05,07,02,2.10
2020,12,05,07,03,2.10
2020,12,05,07,04,2.10
2020,12,05,07,05,2.10
2020,12,05,07,06,2.00
2020,12,05,07,07,2.00
2020,12,05,07,08,1.90
2020,12,05,07,09,1.90
2020,12,05,07,10,1.90
2020,12,05,07,11,1.90
2020,12,05,07,12,1.90
2020,12,05,07,13,1.90
2020,12,05,07,14,1.90
2020,12,05,07,15,1.90
2020,12,05,07,16,1.80
2020,12,05,07,17,1.80
2020,12,05,07,18,1.80
2020,12,05,07,19,1.70
2020,12,05,07,20,1.70
2020,12,05,07,21,1.70
2020,12,05,07,22,1.70
2020,12,05,07,23,1.70
2020,12,05,07,24,1.60
2020,12,05,07,25,1.60
2020,12,05,07,26,1.60
2020,12,05,07,27,1.60
2020,12,05,07,28,1.60
2020,12,05,07,29,1.60
2020,12,05,07,30,1.50
2020,12,05,07,31,1.50
2020,12,05,07,32,1.40
2020,12,05,07,33,1.50
2020,12,05,07,34,1.50
2020,12,05,07,35,1.70
2020,12,05,07,36,1.80
2020,12,05,07,37,1.80
2020,12,05,07,38,1.80
2020,12,05,07,39,1.80
2020,12,05,07,40,1.80
2020,12,05,07,41,1.80
2020,12,05,07,42,1.80
2020,12,05,07,43,1.80
2020,12,05,07,44,1.80
2020,12,05,07,45,1.80
2020,12,05,07,46,1.80
2020,12,05,07,47,1.80
2020,12,05,07,48,1.80
2020,12,05,07,49,1.80
2020,12,05,07,50,1.80
2020,12,05,07,51,1.80
2020,12,05,07,52,1.80
2020,12,05,07,53,1.80
2020,12,05,07,54,1.70
2020,12,05,07,55,1.70
2020,12,05,07,56,1.70
2020,12,05,07,57,1.70
2020,12,05,07,58,1.70
2020,12,05,07,59,1.70
2020,12,05,08,00,1.70
2020,12,05,08,01,1.70
2020,12,05,08,02,1.70
2020,12,05,08,03,1.70
2020,12,05,08,04,1.70
2020,12,05,08,05,1.70
2020,12,05,08,06,1.70
2020,12,05,08,07,1.70
2020,12,05,08,08,1.70
2020,12,05,08,09,1.70
2020,12,05,08,10,1.70
2020,12,05,08,11,1.70
2020,12,05,08,12,1.80
2020,12,05,08,13,1.80
2020,12,05,08,14,1.80
2020,12,05,08,15,1.80
2020,12,05,08,16,1.80
2020,12,05,08,17,1.80
2020,12,05,08,18,1.80
2020,12,05,08,19,1.80
2020,12,05,08,20,1.80
2020,12,05,08,21,1.80
2020,12,05,08,22,1.70
2020,12,05,08,23,1.70
2020,12,05,08,24,1.70
2020,12,05,08,25,1.70
2020,12,05,08,26,1.70
2020,12,05,08,27,1.70
2020,12,05,08,28,1.70
2020,12,05,08,29,1.70
2020,12,05,08,30,1.70
2020,12,05,08,31,1.70
2020,12,05,08,32,1.70
2020,12,05,08,33,1.70
2020,12,05,08,34,1.70
2020,12,05,08,35,1.60
2020,12,05,08,36,1.60
2020,12,05,08,37,1.60
2020,12,05,08,38,1.60
2020,12,05,08,39,1.60
2020,12,05,08,40,1.60
2020,12,05,08,41,1.60
2020,12,05,08,42,1.60
2020,12,05,08,43,1.60
2020,12,05,08,44,1.60
2020,12,05,08,45,1.60
2020,12,05,08,46,1.60
2020,12,05,08,47,1.60
2020,12,05,08,48,1.60
2020,12,05,08,49,1.60
2020,12,05,08,50,1.60
2020,12,05,08,51,1.70
2020,12,05,08,52,1.70
2020,12,05,08,53,1.70
2020,12,05,08,54,1.70
2020,12,05,08,55,1.70
2020,12,05,08,56,1.70
2020,12,05,08,57,1.70
2020,12,05,08,58,1.80
2020,12,05,08,59,1.80
2020,12,05,09,00,1.80
2020,12,05,09,01,1.80
2020,12,05,09,02,1.80
2020,12,05,09,03,1.90
2020,12,05,09,04,1.90
2020,12,05,09,05,1.90
2020,12,05,09,06,1.90
2020,12,05,09,07,1.90
2020,12,05,09,08,1.90
2020,12,05,09,09,2.00
2020,12,05,09,10,2.00
2020,12,05,09,11,2.10
2020,12,05,09,12,2.20
2020,12,05,09,13,2.20
2020,12,05,09,14,2.20
2020,12,05,09,15,2.20
2020,12,05,09,16,2.30
2020,12,05,09,17,2.30
2020,12,05,09,18,2.40
2020,12,05,09,19,2.40
2020,12,05,09,20,2.50
2020,12,05,09,21,2.50
2020,12,05,09,22,2.60
2020,12,05,09,23,2.60
2020,12,05,09,24,2.60
2020,12,05,09,25,2.60
2020,12,05,09,26,2.70
2020,12,05,09,27,2.80
2020,12,05,09,28,2.80
2020,12,05,09,29,2.90
2020,12,05,09,30,3.00
2020,12,05,09,31,3.10
2020,12,05,09,32,3.20
2020,12,05,09,33,3.20
2020,12,05,09,34,3.30
2020,12,05,09,35,3.30
2020,12,05,09,36,3.30
2020,12,05,09,37,3.40
2020,12,05,09,38,3.50
2020,12,05,09,39,3.60
2020,12,05,09,40,3.70
2020,12,05,09,41,3.80
2020,12,05,09,42,3.90
2020,12,05,09,43,3.90
2020,12,05,09,44,4.00
2020,12,05,09,45,4.10
2020,12,05,09,46,4.10
2020,12,05,09,47,4.20
2020,12,05,09,48,4.30
2020,12,05,09,49,4.30
2020,12,05,09,50,4.30
2020,12,05,09,51,4.40
2020,12,05,09,52,4.40
2020,12,05,09,53,4.40
2020,12,05,09,54,4.40
2020,12,05,09,55,4.50
2020,12,05,09,56,4.50
2020,12,05,09,57,4.50
2020,12,05,09,58,4.60
2020,12,05,09,59,4.60
2020,12,05,10,00,4.60
2020,12,05,10,01,4.60
2020,12,05,10,02,4.70
2020,12,05,10,03,4.70
2020,12,05,10,04,4.70
2020,12,05,10,05,4.70
2020,12,05,10,06,4.80
2020,12,05,10,07,4.80
2020,12,05,10,08,4.90
2020,12,05,10,09,4.90
2020,12,05,10,10,5.00
2020,12,05,10,11,5.10
2020,12,05,10,12,5.10
2020,12,05,10,13,5.10
2020,12,05,10,14,5.20
2020,12,05,10,15,5.20
2020,12,05,10,16,5.30
2020,12,05,10,17,5.40
2020,12,05,10,18,5.50
2020,12,05,10,19,5.60
2020,12,05,10,20,5.60
2020,12,05,10,21,5.70
2020,12,05,10,22,5.70
2020,12,05,10,23,5.70
2020,12,05,10,24,5.80
2020,12,05,10,25,5.80
2020,12,05,10,26,5.80
2020,12,05,10,27,5.90
2020,12,05,10,28,5.90
2020,12,05,10,29,5.90
2020,12,05,10,30,6.00
2020,12,05,10,31,6.00
2020,12,05,10,32,6.10
2020,12,05,10,33,6.10
2020,12,05,10,34,6.20
2020,12,05,10,35,6.20
2020,12,05,10,36,6.20
2020,12,05,10,37,6.30
2020,12,05,10,38,6.30
2020,12,05,10,39,6.30
2020,12,05,10,40,6.40
2020,12,05,10,41,6.40
2020,12,05,10,42,6.40
2020,12,05,10,43,6.40
2020,12,05,10,44,6.40
2020,12,05,10,45,6.40
2020,12,05,10,46,6.50
2020,12,05,10,47,6.50
2020,12,05,10,48,6.60
2020,12,05,10,49,6.70
2020,12,05,10,50,6.80
2020,12,05,10,51,6.90
2020,12,05,10,52,6.90
2020,12,05,10,53,7.00
2020,12,05,10,54,7.10
2020,12,05,10,55,7.10
2020,12,05,10,56,7.20
2020,12,05,10,57,7.20
2020,12,05,10,58,7.20
2020,12,05,10,59,7.30
2020,12,05,11,00,7.30
2020,12,05,11,01,7.40
2020,12,05,11,02,7.40
2020,12,05,11,03,7.40
2020,12,05,11,04,7.50
2020,12,05,11,05,7.50
2020,12,05,11,06,7.60
2020,12,05,11,07,7.60
2020,12,05,11,08,7.70
2020,12,05,11,09,7.70
2020,12,05,11,10,7.70
2020,12,05,11,11,7.70
2020,12,05,11,12,7.70
2020,12,05,11,13,7.70
2020,12,05,11,14,7.80
2020,12,05,11,15,7.70
2020,12,05,11,16,7.70
2020,12,05,11,17,7.70
2020,12,05,11,18,7.70
2020,12,05,11,19,7.60
2020,12,05,11,20,7.60
2020,12,05,11,21,7.60
2020,12,05,11,22,7.60
2020,12,05,11,23,7.60
2020,12,05,11,24,7.60
2020,12,05,11,25,7.60
2020,12,05,11,26,7.50
2020,12,05,11,27,7.50
2020,12,05,11,28,7.40
2020,12,05,11,29,7.40
2020,12,05,11,30,7.30
2020,12,05,11,31,7.20
2020,12,05,11,32,7.20
2020,12,05,11,33,7.20
2020,12,05,11,34,7.10
2020,12,05,11,35,7.10
2020,12,05,11,36,7.10
2020,12,05,11,37,7.10
2020,12,05,11,38,7.10
2020,12,05,11,39,7.00
2020,12,05,11,40,7.00
2020,12,05,11,41,7.00
2020,12,05,11,42,7.00
2020,12,05,11,43,7.10
2020,12,05,11,44,7.10
2020,12,05,11,45,7.20
2020,12,05,11,46,7.30
2020,12,05,11,47,7.40
2020,12,05,11,48,7.50
2020,12,05,11,49,7.60
2020,12,05,11,50,7.80
2020,12,05,11,51,7.80
2020,12,05,11,52,8.00
2020,12,05,11,53,8.10
2020,12,05,11,54,8.20
2020,12,05,11,55,8.20
2020,12,05,11,56,8.30
2020,12,05,11,57,8.40
2020,12,05,11,58,8.40
2020,12,05,11,59,8.50
2020,12,05,12,00,8.50
2020,12,05,12,01,8.50
2020,12,05,12,02,8.60
2020,12,05,12,03,8.60
2020,12,05,12,04,8.60
2020,12,05,12,05,8.60
2020,12,05,12,06,8.60
2020,12,05,12,07,8.60
2020,12,05,12,08,8.50
2020,12,05,12,09,8.50
2020,12,05,12,10,8.50
2020,12,05,12,11,8.50
2020,12,05,12,12,8.50
2020,12,05,12,13,8.40
2020,12,05,12,14,8.40
2020,12,05,12,15,8.40
2020,12,05,12,16,8.40
2020,12,05,12,17,8.30
2020,12,05,12,18,8.30
2020,12,05,12,19,8.40
2020,12,05,12,20,8.40
2020,12,05,12,21,8.40
2020,12,05,12,22,8.40
2020,12,05,12,23,8.50
2020,12,05,12,24,8.60
2020,12,05,12,25,8.60
2020,12,05,12,26,8.60
2020,12,05,12,27,8.70
2020,12,05,12,28,8.70
2020,12,05,12,29,8.80
2020,12,05,12,30,8.80
2020,12,05,12,31,8.90
2020,12,05,12,32,8.90
2020,12,05,12,33,8.90
2020,12,05,12,34,9.00
2020,12,05,12,35,9.10
2020,12,05,12,36,9.10
2020,12,05,12,37,9.20
2020,12,05,12,38,9.20
2020,12,05,12,39,9.20
2020,12,05,12,40,9.20
2020,12,05,12,41,9.20
2020,12,05,12,42,9.20
2020,12,05,12,43,9.20
2020,12,05,12,44,9.20
2020,12,05,12,45,9.20
2020,12,05,12,46,9.30
2020,12,05,12,47,9.20
2020,12,05,12,48,9.20
2020,12,05,12,49,9.30
2020,12,05,12,50,9.30
2020,12,05,12,51,9.20
2020,12,05,12,52,9.20
2020,12,05,12,53,9.20
2020,12,05,12,54,9.20
2020,12,05,12,55,9.10
2020,12,05,12,56,9.10
2020,12,05,12,57,9.10
2020,12,05,12,58,9.10
2020,12,05,12,59,9.10
2020,12,05,13,00,9.10
2020,12,05,13,01,9.10
2020,12,05,13,02,9.00
2020,12,05,13,03,9.00
2020,12,05,13,04,9.00
2020,12,05,13,05,9.00
2020,12,05,13,06,9.00
2020,12,05,13,07,9.00
2020,12,05,13,08,8.90
2020,12,05,13,09,8.90
2020,12,05,13,10,8.90
2020,12,05,13,11,8.90
2020,12,05,13,12,8.90
2020,12,05,13,13,9.00
2020,12,05,13,14,9.00
2020,12,05,13,15,9.00
2020,12,05,13,16,9.00
2020,12,05,13,17,9.00
2020,12,05,13,18,9.00
2020,12,05,13,19,9.10
2020,12,05,13,20,9.10
2020,12,05,13,21,9.10
2020,12,05,13,22,9.20
2020,12,05,13,23,9.10
2020,12,05,13,24,9.20
2020,12,05,13,25,9.20
2020,12,05,13,26,9.20
2020,12,05,13,27,9.20
2020,12,05,13,28,9.20
2020,12,05,13,29,9.10
2020,12,05,13,30,9.10
2020,12,05,13,31,9.20
2020,12,05,13,32,9.20
2020,12,05,13,33,9.20
2020,12,05,13,34,9.20
2020,12,05,13,35,9.20
2020,12,05,13,36,9.30
2020,12,05,13,37,9.30
2020,12,05,13,38,9.30
2020,12,05,13,39,9.30
2020,12,05,13,40,9.30
2020,12,05,13,41,9.30
2020,12,05,13,42,9.30
2020,12,05,13,43,9.30
2020,12,05,13,44,9.30
2020,12,05,13,45,9.30
2020,12,05,13,46,9.30
2020,12,05,13,47,9.30
2020,12,05,13,48,9.30
2020,12,05,13,49,9.30
2020,12,05,13,50,9.30
2020,12,05,13,51,9.20
2020,12,05,13,52,9.20
2020,12,05,13,53,9.20
2020,12,05,13,54,9.20
2020,12,05,13,55,9.20
2020,12,05,13,56,9.20
2020,12,05,13,57,9.20
2020,12,05,13,58,9.20
2020,12,05,13,59,9.20
2020,12,05,14,00,9.20
2020,12,05,14,01,9.10
2020,12,05,14,02,9.10
2020,12,05,14,03,9.10
2020,12,05,14,04,9.10
2020,12,05,14,05,9.00
2020,12,05,14,06,9.00
2020,12,05,14,07,9.00
2020,12,05,14,08,9.00
2020,12,05,14,09,9.00
2020,12,05,14,10,9.00
2020,12,05,14,11,8.90
2020,12,05,14,12,8.90
2020,12,05,14,13,8.90
2020,12,05,14,14,8.90
2020,12,05,14,15,8.90
2020,12,05,14,16,8.80
2020,12,05,14,17,8.80
2020,12,05,14,18,8.90
2020,12,05,14,19,8.90
2020,12,05,14,20,8.90
2020,12,05,14,21,8.90
2020,12,05,14,22,8.90
2020,12,05,14,23,8.90
2020,12,05,14,24,8.90
2020,12,05,14,25,9.00
2020,12,05,14,26,9.00
2020,12,05,14,27,9.10
2020,12,05,14,28,9.10
2020,12,05,14,29,9.10
2020,12,05,14,30,9.10
2020,12,05,14,31,9.10
2020,12,05,14,32,9.10
2020,12,05,14,33,9.00
2020,12,05,14,34,9.00
2020,12,05,14,35,8.90
2020,12,05,14,36,8.90
2020,12,05,14,37,8.90
2020,12,05,14,38,8.90
2020,12,05,14,39,8.90
2020,12,05,14,40,8.90
2020,12,05,14,41,8.90
2020,12,05,14,42,8.90
2020,12,05,14,43,8.90
2020,12,05,14,44,8.90
2020,12,05,14,45,8.80
2020,12,05,14,46,8.80
2020,12,05,14,47,8.80
2020,12,05,14,48,8.80
2020,12,05,14,49,8.80
2020,12,05,14,50,8.80
2020,12,05,14,51,8.80
2020,12,05,14,52,8.70
2020,12,05,14,53,8.60
2020,12,05,14,54,8.60
2020,12,05,14,55,8.50
2020,12,05,14,56,8.50
2020,12,05,14,57,8.40
2020,12,05,14,58,8.40
2020,12,05,14,59,8.40
2020,12,05,15,00,8.40
2020,12,05,15,01,8.30
2020,12,05,15,02,8.30
2020,12,05,15,03,8.20
2020,12,05,15,04,8.10
2020,12,05,15,05,8.10
2020,12,05,15,06,8.10
2020,12,05,15,07,8.00
2020,12,05,15,08,8.00
2020,12,05,15,09,7.90
2020,12,05,15,10,7.90
2020,12,05,15,11,7.80
2020,12,05,15,12,7.80
2020,12,05,15,13,7.80
2020,12,05,15,14,7.70
2020,12,05,15,15,7.70
2020,12,05,15,16,7.70
2020,12,05,15,17,7.60
2020,12,05,15,18,7.60
2020,12,05,15,19,7.50
2020,12,05,15,20,7.50
2020,12,05,15,21,7.40
2020,12,05,15,22,7.40
2020,12,05,15,23,7.30
2020,12,05,15,24,7.30
2020,12,05,15,25,7.20
2020,12,05,15,26,7.20
2020,12,05,15,27,7.10
2020,12,05,15,28,7.00
2020,12,05,15,29,6.90
2020,12,05,15,30,6.90
2020,12,05,15,31,6.80
2020,12,05,15,32,6.80
2020,12,05,15,33,6.70
2020,12,05,15,34,6.70
2020,12,05,15,35,6.70
2020,12,05,15,36,6.60
2020,12,05,15,37,6.60
2020,12,05,15,38,6.50
2020,12,05,15,39,6.50
2020,12,05,15,40,6.40
2020,12,05,15,41,6.40
2020,12,05,15,42,6.40
2020,12,05,15,43,6.30
2020,12,05,15,44,6.30
2020,12,05,15,45,6.20
2020,12,05,15,46,6.20
2020,12,05,15,47,6.20
2020,12,05,15,48,6.20
2020,12,05,15,49,6.10
2020,12,05,15,50,6.10
2020,12,05,15,51,6.00
2020,12,05,15,52,6.00
2020,12,05,15,53,5.90
2020,12,05,15,54,5.90
2020,12,05,15,55,5.80
2020,12,05,15,56,5.80
2020,12,05,15,57,5.80
2020,12,05,15,58,5.70
2020,12,05,15,59,5.70
2020,12,05,16,00,5.60
2020,12,05,16,01,5.60
2020,12,05,16,02,5.60
2020,12,05,16,03,5.60
2020,12,05,16,04,5.50
2020,12,05,16,05,5.50
2020,12,05,16,06,5.40
2020,12,05,16,07,5.40
2020,12,05,16,08,5.40
2020,12,05,16,09,5.30
2020,12,05,16,10,5.30
2020,12,05,16,11,5.30
2020,12,05,16,12,5.30
2020,12,05,16,13,5.20
2020,12,05,16,14,5.20
2020,12,05,16,15,5.10
2020,12,05,16,16,5.10
2020,12,05,16,17,5.10
2020,12,05,16,18,5.10
2020,12,05,16,19,5.00
2020,12,05,16,20,5.00
2020,12,05,16,21,4.90
2020,12,05,16,22,4.90
2020,12,05,16,23,4.80
2020,12,05,16,24,4.80
2020,12,05,16,25,4.70
2020,12,05,16,26,4.70
2020,12,05,16,27,4.70
2020,12,05,16,28,4.60
2020,12,05,16,29,4.60
2020,12,05,16,30,4.60
2020,12,05,16,31,4.50
2020,12,05,16,32,4.50
2020,12,05,16,33,4.50
2020,12,05,16,34,4.40
2020,12,05,16,35,4.40
2020,12,05,16,36,4.40
2020,12,05,16,37,4.30
2020,12,05,16,38,4.30
2020,12,05,16,39,4.30
2020,12,05,16,40,4.30
2020,12,05,16,41,4.20
2020,12,05,16,42,4.20
2020,12,05,16,43,4.20
2020,12,05,16,44,4.20
2020,12,05,16,45,4.20
2020,12,05,16,46,4.20
2020,12,05,16,47,4.10
2020,12,05,16,48,4.10
2020,12,05,16,49,4.10
2020,12,05,16,50,4.10
2020,12,05,16,51,4.00
2020,12,05,16,52,4.00
2020,12,05,16,53,4.00
2020,12,05,16,54,3.90
2020,12,05,16,55,3.90
2020,12,05,16,56,3.90
2020,12,05,16,57,3.90
2020,12,05,16,58,3.80
2020,12,05,16,59,3.80
2020,12,05,17,00,3.80
2020,12,05,17,01,3.80
2020,12,05,17,02,3.70
2020,12,05,17,03,3.70
2020,12,05,17,04,3.70
2020,12,05,17,05,3.70
2020,12,05,17,06,3.60
2020,12,05,17,07,3.60
2020,12,05,17,08,3.60
2020,12,05,17,09,3.50
2020,12,05,17,10,3.50
2020,12,05,17,11,3.50
2020,12,05,17,12,3.40
2020,12,05,17,13,3.40
2020,12,05,17,14,3.40
2020,12,05,17,15,3.40
2020,12,05,17,16,3.30
2020,12,05,17,17,3.30
2020,12,05,17,18,3.30
2020,12,05,17,19,3.30
2020,12,05,17,20,3.30
2020,12,05,17,21,3.30
2020,12,05,17,22,3.20
2020,12,05,17,23,3.20
2020,12,05,17,24,3.20
2020,12,05,17,25,3.20
2020,12,05,17,26,3.20
2020,12,05,17,27,3.10
2020,12,05,17,28,3.10
2020,12,05,17,29,3.10
2020,12,05,17,30,3.00
2020,12,05,17,31,3.00
2020,12,05,17,32,2.90
2020,12,05,17,33,2.90
2020,12,05,17,34,2.90
2020,12,05,17,35,2.90
2020,12,05,17,36,2.90
2020,12,05,17,37,2.90
2020,12,05,17,38,2.90
2020,12,05,17,39,2.80
2020,12,05,17,40,2.80
2020,12,05,17,41,2.80
2020,12,05,17,42,2.80
2020,12,05,17,43,2.80
2020,12,05,17,44,2.80
2020,12,05,17,45,2.70
2020,12,05,17,46,2.70
2020,12,05,17,47,2.70
2020,12,05,17,48,2.70
2020,12,05,17,49,2.70
2020,12,05,17,50,2.70
2020,12,05,17,51,2.70
2020,12,05,17,52,2.70
2020,12,05,17,53,2.70
2020,12,05,17,54,2.70
2020,12,05,17,55,2.60
2020,12,05,17,56,2.60
2020,12,05,17,57,2.60
2020,12,05,17,58,2.60
2020,12,05,17,59,2.60
2020,12,05,18,00,2.60
2020,12,05,18,01,2.60
2020,12,05,18,02,2.60
2020,12,05,18,03,2.60
2020,12,05,18,04,2.60
2020,12,05,18,05,2.60
2020,12,05,18,06,2.60